This demonstration page uses our WeatherBlox Daily Observations layout. Learn more.

Left ArrowRight Arrow

38.20091, -84.87328

Hourly Observations for August 13, 2016

Temp ( °F °C ) Dew Point ( °F °C ) Humidity (%) Winds ( mph kmh ) Pressure ( in mb ) Visibility ( mi km ) Precip ( " mm )
12:53 am 00:53 Clear 80 26.7 73 22.8 79 79 SSE 3 6 29.88 1012 10 16 0.00 0.00
1:53 am 01:53 Clear 78 25.6 73 22.8 85 85 S 5 7 29.88 1012 10 16 0.00 0.00
2:53 am 02:53 Cloudy 79 26.1 73 22.8 82 82 S 6 9 29.88 1012 10 16 0.00 0.00
3:53 am 03:53 Mostly Cloudy 79 26.1 73 22.8 82 82 S 5 7 29.87 1012 10 16 0.00 0.00
4:53 am 04:53 Cloudy 80 26.7 71 21.7 74 74 SSW 9 15 29.88 1012 10 16 0.00 0.00
5:53 am 05:53 Cloudy 80 26.7 70 21.1 71 71 S 9 15 29.88 1012 10 16 0.00 0.00
6:53 am 06:53 Mostly Clear 79 26.1 70 21.1 74 74 S 9 15 29.88 1012 10 16 0.00 0.00
7:53 am 07:53 Cloudy 79 26.1 71 21.7 77 77 SSW 9 15 29.91 1013 10 16 0.00 0.00
8:53 am 08:53 Mostly Sunny 80 26.7 71 21.7 74 74 SSW 13 20 29.92 1013 10 16 0.00 0.00
9:53 am 09:53 Mostly Sunny 82 27.8 71 21.7 69 69 S 17 28 29.91 1013 10 16 0.00 0.00
10:37 am 10:37 Mostly Cloudy 82 27.8 72 22.2 72 72 SSW 17 28 29.91 1013 10 16 0.00 0.00
10:53 am 10:53 Mostly Cloudy 83 28.3 71 21.7 67 67 SSW 18 30 29.92 1013 10 16 0.00 0.00
11:24 am 11:24 Cloudy 83 28.3 71 21.7 67 67 S 20 31 29.94 1014 10 16 0.00 0.00
11:37 am 11:37 Cloudy 83 28.3 72 22.2 70 70 SSW 14 22 29.94 1014 10 16 0.00 0.00
11:53 am 11:53 Cloudy 83 28.3 72 22.2 70 70 SSW 15 24 29.93 1014 10 16 0.00 0.00
12:23 pm 12:23 Cloudy 83 28.3 72 22.2 70 70 SW 16 26 29.94 1014 10 16 0.00 0.00
12:53 pm 12:53 Cloudy 83 28.3 72 22.2 70 70 SSW 15 24 29.94 1014 10 16 0.00 0.00
1:13 pm 13:13 Cloudy 84 28.9 73 22.8 70 70 SSW 12 19 29.94 1014 10 16 0.00 0.00
1:43 pm 13:43 Cloudy with Light Rain 83 28.3 72 22.2 70 70 SW 15 24 29.94 1014 10 16 0.00 0.03
1:53 pm 13:53 Cloudy 83 28.3 73 22.8 72 72 SW 14 22 29.93 1014 10 16 0.00 0.03
2:20 pm 14:20 Cloudy with Light Rain 81 27.2 73 22.8 77 77 SW 9 15 29.94 1014 10 16 0.00 0.03
2:35 pm 14:35 Mostly Cloudy 86 30 73 22.8 65 65 SSW 14 22 29.91 1013 10 16 0.00 0.03
2:53 pm 14:53 Mostly Cloudy 85 29.4 72 22.2 65 65 S 16 26 29.92 1013 10 16 0.00 0.03
3:53 pm 15:53 Mostly Cloudy 84 28.9 72 22.2 67 67 SSW 13 20 29.92 1013 10 16 0.00 0.00
4:53 pm 16:53 Cloudy 83 28.3 72 22.2 70 70 SW 10 17 29.90 1013 10 16 0.00 0.00
5:53 pm 17:53 Mostly Cloudy 83 28.3 71 21.7 67 67 SW 12 19 29.91 1013 10 16 0.00 0.00
6:53 pm 18:53 Mostly Sunny 83 28.3 72 22.2 70 70 SSW 14 22 29.92 1013 10 16 0.00 0.00
7:53 pm 19:53 Mostly Sunny 82 27.8 72 22.2 72 72 SW 8 13 29.93 1014 10 16 0.00 0.00
8:53 pm 20:53 Partly Cloudy 80 26.7 72 22.2 76 76 SW 5 7 29.95 1014 10 16 0.00 0.00
9:53 pm 21:53 Partly Cloudy 79 26.1 71 21.7 77 77 SSW 5 7 29.96 1015 10 16 0.00 0.00
10:53 pm 22:53 Mostly Cloudy 78 25.6 71 21.7 79 79 SSW 5 7 29.98 1015 10 16 0.00 0.00
11:53 pm 23:53 Mostly Cloudy 76 24.4 72 22.2 88 88 SSW 6 9 29.98 1015 10 16 0.01 0.25

Powered by AerisWeather